[[{"header":{"parameterUnit":"m.s-1","parameterCategory":1,"la1":30.2991,"la2":30.254,"lo1":-89.0895,"lo2":-89.0444,"dy":0.0017,"dx":0.0017,"nx":28,"ny":28,"refTime":"2024-03-26T03:00:00:Z","depth":0,"parameterNumber":2,"parameterNumberName":"U-component_of_WINDS"},"data":[0,0,0,0,0,0,0,0,0,0,0,0,0,0,0,0,0,0,0,0,0,0,0,0,0,0,0,0,0,0,0,0,0,0,0,0,0,0,0,0,0,0,0,0,0,0,0,0,0,0,0,0,0,0,0,0,0,0,0.3611,0.3611,0,0.3536,0.3536,0.3535,0.3522,0.3522,0.3523,0.3523,0.3443,0.344,0.3437,0,0,0,0,0,0,0,0,0,0,0,0,0,0.374,0.3737,0.3611,0.3611,0.361,0.3537,0.3536,0.3535,0.3521,0.3522,0.3523,0.3524,0.3444,0.344,0.3437,0,0,0,0,0,0,0,0,0,0,0,0,0,0.3676,0.3737,0.3612,0.3594,0.3592,0.3537,0.3536,0.3534,0.3521,0.3522,0.3523,0.3524,0.3445,0.3441,0.3437,0.3392,0,0,0.3424,0.3422,0,0,0,0,0,0,0,0,0.368,0.3671,0.3598,0.3595,0.3593,0.3539,0.3551,0.3486,0.3521,0.3548,0.3523,0.3525,0.3474,0.3467,0.3451,0.3388,0.3385,0.3424,0.3421,0.342,0.3418,0,0,0,0,0,0,0,0.3684,0.3675,0.3582,0.3597,0.3594,0.3589,0.3581,0.3539,0.3506,0.3546,0.3545,0.3536,0.3473,0.3455,0.3449,0.3384,0.3424,0.342,0.3418,0.3416,0.328,0.3279,0,0,0,0,0,0,0.3692,0.3678,0.3584,0.3579,0.364,0.3586,0.3577,0.3556,0.3507,0.35,0.3535,0.3536,0.3462,0.3454,0.3446,0.339,0.342,0.3416,0.3413,0.3281,0.328,0.3278,0,0,0,0,0,0,0.3695,0.3684,0.3587,0.3629,0.3616,0.3583,0.3559,0.3554,0.3536,0.3499,0.3493,0.3524,0.3462,0.3452,0.3406,0.3387,0.3414,0.341,0.3282,0.3281,0.3279,0.3278,0,0,0,0,0,0,0.3699,0.3685,0.3669,0.3628,0.3614,0.3549,0.3558,0.3551,0.3529,0.3529,0.3486,0.348,0.3462,0.3412,0.3402,0.3382,0.3407,0.3284,0.3282,0.3279,0.3279,0.3276,0.3274,0,0,0,0,0,0.3703,0.3671,0.3668,0.3656,0.3593,0.3548,0.3539,0.352,0.3528,0.3511,0.3487,0.3482,0.3391,0.3407,0.3396,0.3374,0.3285,0.3282,0.328,0.3281,0.3277,0.3274,0,0,0,0,0,0,0.3708,0.3665,0.3661,0.3615,0.3585,0.3546,0.3523,0.3517,0.3484,0.3485,0.3462,0.3452,0.3407,0.3386,0.3405,0.3328,0.3338,0.3333,0.3343,0.3339,0.3337,0.3342,0.3404,0,0,0,0,0,0.3704,0.3672,0.3636,0.3598,0.3584,0.3556,0.3536,0.3524,0.3492,0.3479,0.3452,0.342,0.3384,0.3361,0.3326,0.3277,0.3267,0.3257,0.3254,0.3252,0.3247,0.3219,0.3213,0.327,0.327,0.327,0,0,0.3694,0.3667,0.3648,0.3599,0.3574,0.3541,0.3546,0.351,0.3485,0.3473,0.3428,0.3407,0.3369,0.3322,0.3299,0.3303,0.3229,0.3248,0.3247,0.3243,0.3215,0.321,0.3205,0.3268,0.3268,0.3269,0,0,0.366,0.3637,0.3603,0.3578,0.3542,0.3524,0.3516,0.3477,0.3463,0.3418,0.3408,0.3377,0.3317,0.329,0.3269,0.3225,0.3218,0.3214,0.3199,0.3171,0.3167,0.3163,0.3146,0.314,0.321,0.321,0.321,0,0.3652,0.3603,0.3585,0.355,0.3528,0.3518,0.3482,0.3459,0.3413,0.3397,0.3403,0.3326,0.3301,0.3246,0.3235,0.3219,0.3207,0.3218,0.3169,0.3165,0.3161,0.3144,0.3138,0.321,0.321,0.321,0.321,0,0.3595,0.356,0.3537,0.3494,0.3469,0.3434,0.341,0.3387,0.3378,0.3359,0.3312,0.3281,0.3239,0.3226,0.3215,0.3169,0.3173,0.3174,0.3183,0.3155,0.3139,0.3133,0.3209,0.3209,0.3209,0.3209,0,0,0.356,0.3508,0.35,0.348,0.3439,0.3411,0.3375,0.3336,0.3316,0.3285,0.3253,0.3202,0.3203,0.3179,0.3166,0.3142,0.3108,0.3146,0.3145,0.3139,0.3054,0.3052,0.3045,0.3104,0.3103,0.3102,0.3056,0,0.3519,0.3456,0.3439,0.3385,0.3352,0.3342,0.3311,0.3282,0.3263,0.3232,0.3211,0.3175,0.318,0.3165,0.3141,0.3117,0.309,0.3121,0.3073,0.3071,0.3081,0.3037,0.3035,0.2993,0.305,0.3049,0.3048,0,0.3463,0.3432,0.3375,0.3338,0.3324,0.3296,0.3258,0.3229,0.3196,0.3184,0.3157,0.3146,0.3107,0.312,0.3065,0.3086,0.3066,0.3051,0.3049,0.3042,0.3057,0.3027,0.2979,0.2972,0.3039,0.3039,0.304,0,0.3442,0.3385,0.3344,0.3327,0.3284,0.3264,0.3245,0.3213,0.319,0.3157,0.3142,0.3104,0.3083,0.3054,0.3033,0.3044,0.2979,0.299,0.2966,0.2967,0.2952,0.2953,0.2898,0.2941,0.2941,0.2942,0.2942,0,0.3398,0.3363,0.3333,0.3307,0.3268,0.3249,0.3209,0.319,0.3161,0.313,0.312,0.309,0.3065,0.3033,0.3016,0.2972,0.2963,0.2951,0.2947,0.2951,0.2952,0.2936,0.2938,0.294,0.294,0.2941,0.2941,0,0.3366,0.3346,0.3299,0.3263,0.3252,0.3224,0.3192,0.3166,0.3148,0.3109,0.3099,0.3069,0.303,0.3007,0.2957,0.2946,0.2897,0.2895,0.2908,0.2906,0.2883,0.2885,0.2815,0.2804,0.2856,0.2856,0.2855,0,0.3339,0.3312,0.3272,0.3252,0.3233,0.3199,0.3176,0.3157,0.3133,0.3093,0.3071,0.3032,0.2999,0.2937,0.291,0.2872,0.2868,0.2846,0.2862,0.2867,0.2866,0.2867,0.2863,0.2843,0.2842,0.2842,0.2842,0,0.3291,0.3283,0.3251,0.3215,0.3188,0.3159,0.313,0.3113,0.3088,0.3062,0.3023,0.2998,0.2947,0.2908,0.2868,0.2846,0.2839,0.2837,0.2829,0.2833,0.2841,0.2835,0.2899,0.2838,0.2839,0.2839,0.2839,0.2839,0.326,0.3235,0.3204,0.3168,0.3145,0.3118,0.3091,0.307,0.3037,0.2996,0.2986,0.2944,0.2911,0.2856,0.2834,0.28,0.2804,0.2793,0.279,0.2787,0.2786,0.2848,0.2793,0.2793,0.2793,0.2793,0.2793,0,0.3211,0.319,0.3158,0.3118,0.309,0.3088,0.3055,0.3031,0.2995,0.2966,0.2934,0.2888,0.285,0.2821,0.2782,0.276,0.2756,0.275,0.2751,0.2746,0.2786,0.2796,0.2754,0.2754,0.2754,0.2754,0.2754,0.2754,0.3182,0.314,0.3127,0.3073,0.3052,0.3012,0.2993,0.2968,0.2944,0.2894,0.2863,0.2845,0.2815,0.2773,0.2737,0.273,0.2715,0.271,0.2701,0.2739,0.2743,0.2747,0.2756,0.2707,0.2707,0.2664,0.2663,0.2663]},{"header":{"parameterUnit":"m.s-1","parameterCategory":1,"la1":30.2991,"la2":30.254,"lo1":-89.0895,"lo2":-89.0444,"dy":0.0017,"dx":0.0017,"nx":28,"ny":28,"refTime":"2024-03-26T03:00:00:Z","depth":0,"parameterNumber":3,"parameterNumberName":"V-component_of_WINDS"},"data":[0,0,0,0,0,0,0,0,0,0,0,0,0,0,0,0,0,0,0,0,0,0,0,0,0,0,0,0,0,0,0,0,0,0,0,0,0,0,0,0,0,0,0,0,0,0,0,0,0,0,0,0,0,0,0,0,0,0,-5.2489,-5.249,0,-5.2607,-5.2608,-5.261,-5.256,-5.2558,-5.2555,-5.2552,-5.2669,-5.2675,-5.268,0,0,0,0,0,0,0,0,0,0,0,0,0,-5.2217,-5.2223,-5.2489,-5.249,-5.2492,-5.2607,-5.2608,-5.261,-5.2561,-5.2557,-5.2554,-5.2551,-5.2667,-5.2674,-5.2681,0,0,0,0,0,0,0,0,0,0,0,0,0,-5.2335,-5.2224,-5.2489,-5.2481,-5.2482,-5.2607,-5.2609,-5.2611,-5.2562,-5.2557,-5.2553,-5.2549,-5.2665,-5.2673,-5.2682,-5.282,0,0,-5.2708,-5.2712,0,0,0,0,0,0,0,0,-5.2329,-5.2345,-5.2481,-5.2482,-5.2483,-5.2565,-5.2556,-5.2681,-5.2563,-5.2531,-5.2552,-5.2547,-5.2638,-5.2648,-5.2679,-5.2825,-5.283,-5.2709,-5.2714,-5.2718,-5.272,0,0,0,0,0,0,0,-5.2321,-5.234,-5.2535,-5.2483,-5.2484,-5.2471,-5.2483,-5.2579,-5.2606,-5.2534,-5.253,-5.2545,-5.2637,-5.2671,-5.2682,-5.2832,-5.2709,-5.2716,-5.2722,-5.2725,-5.3097,-5.3102,0,0,0,0,0,0,-5.2313,-5.2334,-5.2532,-5.2539,-5.2394,-5.2479,-5.2493,-5.2543,-5.2605,-5.2611,-5.2549,-5.2542,-5.2659,-5.2672,-5.2686,-5.2852,-5.2718,-5.2726,-5.2731,-5.3093,-5.3098,-5.3104,0,0,0,0,0,0,-5.2307,-5.2331,-5.2527,-5.2436,-5.2459,-5.2489,-5.2545,-5.2547,-5.2581,-5.2617,-5.2621,-5.2579,-5.2656,-5.2674,-5.2787,-5.2856,-5.273,-5.2738,-5.3087,-5.3094,-5.3101,-5.3186,0,0,0,0,0,0,-5.23,-5.2329,-5.2383,-5.2437,-5.2465,-5.2628,-5.2549,-5.2553,-5.2597,-5.259,-5.2646,-5.2651,-5.2654,-5.2775,-5.2796,-5.2865,-5.2744,-5.3081,-5.309,-5.3099,-5.3177,-5.3195,-5.3211,0,0,0,0,0,-5.229,-5.2401,-5.2386,-5.241,-5.2532,-5.2632,-5.2647,-5.2649,-5.2602,-5.2656,-5.2679,-5.265,-5.2845,-5.2787,-5.281,-5.2883,-5.3077,-5.3088,-5.3098,-5.317,-5.3192,-5.321,0,0,0,0,0,0,-5.2352,-5.2408,-5.2392,-5.2523,-5.2574,-5.2623,-5.2691,-5.2672,-5.2735,-5.2726,-5.2724,-5.2737,-5.2855,-5.288,-5.2815,-5.302,-5.2953,-5.2969,-5.3,-5.3021,-5.3037,-5.3029,-5.2752,0,0,0,0,0,-5.2381,-5.2459,-5.2503,-5.2615,-5.2641,-5.2662,-5.2705,-5.2703,-5.2754,-5.2774,-5.2805,-5.2855,-5.2928,-5.2975,-5.3044,-5.318,-5.3192,-5.3242,-5.3259,-5.3272,-5.3286,-5.3361,-5.3384,-5.3138,-5.3138,-5.3138,0,0,-5.2442,-5.2482,-5.2531,-5.2628,-5.2667,-5.2747,-5.268,-5.2767,-5.2826,-5.2787,-5.2897,-5.2922,-5.2977,-5.3103,-5.316,-5.3127,-5.3356,-5.3286,-5.3296,-5.3303,-5.3374,-5.3397,-5.3418,-5.3146,-5.3144,-5.3143,0,0,-5.2594,-5.2632,-5.273,-5.2771,-5.283,-5.2844,-5.2867,-5.2921,-5.2936,-5.3047,-5.302,-5.3089,-5.3213,-5.3255,-5.3292,-5.346,-5.3436,-5.3482,-5.3569,-5.3642,-5.3662,-5.3679,-5.374,-5.3762,-5.3496,-5.3496,-5.3496,0,-5.2662,-5.2782,-5.2783,-5.2873,-5.2917,-5.2887,-5.2986,-5.3024,-5.3103,-5.3133,-5.3096,-5.3253,-5.3288,-5.3424,-5.3465,-5.3496,-5.3522,-5.3476,-5.3659,-5.3676,-5.3692,-5.3751,-5.3774,-5.3501,-5.3501,-5.35,-5.35,0,-5.2863,-5.2947,-5.3019,-5.3098,-5.3149,-5.3243,-5.3258,-5.3309,-5.3302,-5.3319,-5.3432,-5.3473,-5.355,-5.3582,-5.3575,-5.3717,-5.3695,-5.3659,-5.3592,-5.3721,-5.3776,-5.3798,-5.3509,-5.3507,-5.3506,-5.3504,0,0,-5.3058,-5.3137,-5.3164,-5.3199,-5.3263,-5.3328,-5.342,-5.3497,-5.3542,-5.3596,-5.3674,-5.3781,-5.3748,-5.379,-5.3787,-5.3851,-5.3983,-5.3807,-5.3808,-5.3839,-5.4144,-5.4172,-5.4198,-5.3967,-5.3971,-5.3975,-5.4139,0,-5.3216,-5.338,-5.3384,-5.3534,-5.3612,-5.3584,-5.3665,-5.3712,-5.3731,-5.3798,-5.3817,-5.3894,-5.3844,-5.3869,-5.3931,-5.3954,-5.4045,-5.3942,-5.4039,-5.4042,-5.4028,-5.4226,-5.4256,-5.441,-5.4161,-5.4164,-5.4167,0,-5.3423,-5.3487,-5.3645,-5.3699,-5.3732,-5.3804,-5.3875,-5.394,-5.3993,-5.4002,-5.405,-5.4038,-5.4131,-5.4061,-5.4189,-5.412,-5.4159,-5.4176,-5.4182,-5.4192,-5.4114,-5.4243,-5.4459,-5.4482,-5.42,-5.4198,-5.4195,0,-5.3551,-5.3676,-5.3787,-5.3819,-5.3884,-5.3936,-5.3965,-5.4014,-5.406,-5.4122,-5.4152,-5.4223,-5.4262,-5.4316,-5.4323,-5.4271,-5.4453,-5.4383,-5.4463,-5.4463,-5.4504,-5.4501,-5.4731,-5.4527,-5.4527,-5.4526,-5.4526,0,-5.3728,-5.3826,-5.3846,-5.3915,-5.4024,-5.4026,-5.4134,-5.4159,-5.4203,-5.4275,-5.4255,-5.4323,-5.4327,-5.4397,-5.4402,-5.4509,-5.4526,-5.4535,-5.4536,-5.4538,-5.4538,-5.4565,-5.4555,-5.4532,-5.4531,-5.453,-5.4529,0,-5.389,-5.3907,-5.4027,-5.408,-5.4095,-5.4173,-5.4218,-5.4283,-5.4299,-5.4391,-5.4412,-5.4438,-5.4519,-5.4531,-5.4625,-5.4629,-5.4757,-5.4746,-5.474,-5.4739,-5.4819,-5.4812,-5.5075,-5.511,-5.4883,-5.4885,-5.4887,0,-5.4003,-5.4078,-5.4139,-5.4187,-5.422,-5.4296,-5.4344,-5.4349,-5.4399,-5.4466,-5.4523,-5.4602,-5.4666,-5.4797,-5.4823,-5.4895,-5.4886,-5.4973,-5.4896,-5.4897,-5.4889,-5.4885,-5.4893,-5.4988,-5.4991,-5.4993,-5.4994,0,-5.4201,-5.4206,-5.4276,-5.4351,-5.4409,-5.4467,-5.4521,-5.4561,-5.4573,-5.463,-5.4714,-5.4764,-5.4861,-5.494,-5.5012,-5.504,-5.502,-5.5018,-5.5041,-5.5045,-5.5039,-5.5045,-5.4782,-5.5012,-5.5011,-5.5009,-5.5008,-5.5008,-5.4343,-5.4409,-5.4463,-5.4542,-5.4584,-5.4636,-5.4701,-5.4726,-5.4796,-5.4877,-5.4875,-5.4967,-5.5018,-5.5112,-5.5146,-5.5217,-5.5189,-5.5221,-5.5229,-5.5238,-5.5246,-5.5027,-5.523,-5.5229,-5.5229,-5.5228,-5.5228,0,-5.4541,-5.4575,-5.4648,-5.4726,-5.4789,-5.4765,-5.4824,-5.4878,-5.496,-5.501,-5.5074,-5.517,-5.5246,-5.5279,-5.5354,-5.5405,-5.5397,-5.5424,-5.5421,-5.5428,-5.5267,-5.5241,-5.5429,-5.5429,-5.5429,-5.5429,-5.5429,-5.5429,-5.4652,-5.4764,-5.4775,-5.4907,-5.4939,-5.5031,-5.5067,-5.5115,-5.5155,-5.5264,-5.5328,-5.5349,-5.5392,-5.547,-5.554,-5.5547,-5.5576,-5.5608,-5.5611,-5.546,-5.544,-5.542,-5.5396,-5.5614,-5.5614,-5.5767,-5.5768,-5.5769]}]]